Date,TemperatureHighF,TemperatureAvgF,TemperatureLowF,DewpointHighF,DewpointAvgF,DewpointLowF,HumidityHigh,HumidityAvg,HumidityLow,PressureMaxIn,PressureMinIn,WindSpeedMaxMPH,WindSpeedAvgMPH,GustSpeedMaxMPH,PrecipitationSumIn
2013-4-1,53.0,44.6,39.0,34.0,24.9,13.0,74,48,25,0.00,40.00,9,6,17,0.08
2013-4-2,49.0,39.6,33.0,20.0,17.8,15.0,54,42,25,0.00,40.00,7,5,14,0.00
2013-4-3,52.0,42.9,32.0,21.0,19.3,18.0,61,40,27,0.00,40.00,11,6,18,0.00
2013-4-4,57.0,46.1,36.0,27.0,22.4,15.0,59,41,20,0.00,40.00,9,5,17,0.00
2013-4-5,71.0,57.0,42.0,35.0,30.6,24.0,56,38,26,0.00,40.00,7,5,16,0.00
2013-4-6,75.0,63.1,53.0,47.0,38.6,32.0,50,41,33,0.00,40.00,17,10,29,0.00
2013-4-7,77.0,65.1,54.0,58.0,47.9,43.0,95,57,30,0.00,40.00,10,6,19,0.36
2013-4-8,77.0,66.8,57.0,58.0,55.6,53.0,86,69,46,0.00,40.00,10,7,21,0.36
2013-4-9,75.0,68.7,63.0,62.0,58.2,56.0,80,69,60,0.00,40.00,9,7,17,0.00
2013-4-10,72.0,56.6,41.0,61.0,53.4,40.0,98,90,62,0.00,40.00,11,6,25,1.34
2013-4-11,44.0,38.9,35.0,40.0,32.4,28.0,98,79,55,0.00,40.00,12,9,26,0.67
2013-4-12,51.0,41.4,34.0,32.0,28.6,25.0,73,61,46,0.00,40.00,11,7,23,0.01
2013-4-13,70.0,53.0,38.0,40.0,34.9,31.0,78,53,32,0.00,40.00,8,5,16,0.00
2013-4-14,81.0,67.9,55.0,59.0,44.3,39.0,95,46,24,0.00,40.00,13,9,29,0.05
2013-4-15,67.0,54.9,48.0,60.0,50.5,42.0,99,85,75,0.00,40.00,11,7,22,0.12
2013-4-16,49.0,44.1,41.0,48.0,43.1,40.0,100,97,88,0.00,40.00,13,8,26,0.37
2013-4-17,82.0,63.7,45.0,72.0,56.5,45.0,100,81,53,0.00,40.00,10,7,24,0.01
2013-4-18,76.0,53.7,39.0,65.0,49.5,30.0,99,86,64,0.00,40.00,14,9,25,1.99
2013-4-19,51.0,41.9,35.0,30.0,24.3,19.0,69,52,29,0.00,40.00,15,10,28,0.10
2013-4-20,62.0,49.3,36.0,31.0,27.8,22.0,69,45,30,0.00,40.00,8,5,18,0.00
2013-4-21,70.0,57.6,49.0,38.0,34.9,30.0,65,44,28,0.00,40.00,11,7,20,0.00
2013-4-22,72.0,60.7,48.0,41.0,35.8,29.0,65,42,22,0.00,40.00,9,6,19,0.00
2013-4-23,61.0,46.7,36.0,50.0,41.3,35.0,99,85,48,0.00,40.00,9,6,16,1.03
2013-4-24,54.0,42.7,34.0,35.0,29.2,22.0,97,64,30,0.00,40.00,8,6,18,0.12
2013-4-25,68.0,54.0,40.0,36.0,31.7,27.0,64,45,27,0.00,40.00,10,5,17,0.02
2013-4-26,58.0,51.0,47.0,48.0,43.3,34.0,99,78,40,0.00,40.00,8,6,19,0.57
2013-4-27,51.0,48.7,47.0,51.0,48.6,47.0,100,99,97,0.00,40.00,6,4,12,0.73
2013-4-28,71.0,56.0,49.0,52.0,49.0,48.0,100,80,46,0.00,40.00,7,4,13,0.01
2013-4-29,86.0,67.3,53.0,61.0,54.0,49.0,88,66,34,0.00,40.00,12,7,22,0.00
2013-4-30,85.0,77.3,68.0,56.0,48.1,44.0,66,38,24,0.00,40.00,15,8,23,0.00